| time (UTC) | temp F | wind direction | speed knots | gust knots | rain 1hr in | rain 24hr in | rain mn in | humidity % | barometer mb |
| 20260504100411 | 44 | 197 | 0.9 | 0.9 | 0.00 | 0.00 | 0.00 | 76 | 1016.5 |
| 20260504081843 | 43 | 0 | 0.0 | 0.0 | 0.00 | 0.00 | 0.00 | 71 | 1016.5 |
| 20260504081343 | 43 | 0 | 0.0 | 0.0 | 0.00 | 0.00 | 0.00 | 71 | 1016.6 |
| 20260504080902 | 43 | 0 | 0.0 | 0.0 | 0.00 | 0.00 | 0.00 | 71 | 1016.6 |
| 20260504080402 | 43 | 0 | 0.0 | 0.0 | 0.00 | 0.00 | 0.00 | 72 | 1016.5 |
| 20260504070343 | 44 | 0 | 0.0 | 0.0 | 0.00 | 0.00 | 0.00 | 67 | 1016.9 |
| 20260504050329 | 50 | 263 | 1.7 | 2.6 | 0.00 | 0.00 | 0.00 | 53 | 1017.0 |
| 20260504045829 | 50 | 270 | 1.7 | 2.6 | 0.00 | 0.00 | 0.00 | 53 | 1017.0 |
| 20260504045333 | 50 | 263 | 2.6 | 3.5 | 0.00 | 0.00 | 0.00 | 53 | 1016.9 |
| 20260504044831 | 49 | 252 | 0.9 | 1.7 | 0.00 | 0.00 | 0.00 | 53 | 1016.9 |
| 20260504044326 | 49 | 308 | 0.9 | 1.7 | 0.00 | 0.00 | 0.00 | 53 | 1016.9 |
| 20260504043826 | 49 | 198 | 0.0 | 1.7 | 0.00 | 0.00 | 0.00 | 53 | 1016.8 |
| 20260504043326 | 49 | 244 | 1.7 | 1.7 | 0.00 | 0.00 | 0.00 | 53 | 1016.8 |
| 20260504042826 | 49 | 286 | 0.0 | 1.7 | 0.00 | 0.00 | 0.00 | 53 | 1016.8 |
| 20260504042325 | 49 | 234 | 1.7 | 2.6 | 0.00 | 0.00 | 0.00 | 53 | 1016.7 |
| 20260504041825 | 49 | 241 | 0.9 | 1.7 | 0.00 | 0.00 | 0.00 | 53 | 1016.7 |
| 20260504041332 | 50 | 273 | 0.9 | 2.6 | 0.00 | 0.00 | 0.00 | 52 | 1016.7 |
| 20260504040824 | 50 | 268 | 0.9 | 1.7 | 0.00 | 0.00 | 0.00 | 52 | 1016.6 |
| 20260504040324 | 50 | 219 | 0.9 | 2.6 | 0.00 | 0.00 | 0.00 | 52 | 1016.6 |
| 20260504035824 | 50 | 243 | 0.9 | 2.6 | 0.00 | 0.00 | 0.00 | 52 | 1016.6 |
| 20260504035323 | 50 | 227 | 0.9 | 1.7 | 0.00 | 0.00 | 0.00 | 51 | 1016.6 |
| 20260504034823 | 50 | 205 | 1.7 | 1.7 | 0.00 | 0.00 | 0.00 | 52 | 1016.7 |
| 20260504034330 | 50 | 221 | 0.9 | 1.7 | 0.00 | 0.00 | 0.00 | 51 | 1016.8 |
| 20260504033822 | 50 | 206 | 1.7 | 2.6 | 0.00 | 0.00 | 0.00 | 51 | 1016.9 |
| 20260504033342 | 50 | 222 | 0.0 | 0.9 | 0.00 | 0.00 | 0.00 | 50 | 1016.9 |
| 20260504032841 | 50 | 230 | 1.7 | 1.7 | 0.00 | 0.00 | 0.00 | 50 | 1017.0 |
| 20260504032321 | 50 | 258 | 0.9 | 1.7 | 0.00 | 0.00 | 0.00 | 51 | 1016.9 |
| 20260504031821 | 50 | 220 | 0.9 | 1.7 | 0.00 | 0.00 | 0.00 | 50 | 1016.8 |
| 20260504031320 | 50 | 209 | 1.7 | 2.6 | 0.00 | 0.00 | 0.00 | 50 | 1016.8 |
| 20260504030820 | 50 | 237 | 1.7 | 2.6 | 0.00 | 0.00 | 0.00 | 51 | 1016.8 |
| 20260504030321 | 50 | 196 | 1.7 | 1.7 | 0.00 | 0.00 | 0.00 | 49 | 1016.7 |
| 20260504025819 | 50 | 233 | 0.0 | 0.9 | 0.00 | 0.00 | 0.00 | 50 | 1016.9 |
| 20260504025319 | 49 | 275 | 0.9 | 1.7 | 0.00 | 0.00 | 0.00 | 51 | 1017.0 |
| 20260504024838 | 50 | 307 | 0.0 | 0.9 | 0.00 | 0.00 | 0.00 | 51 | 1017.0 |
| 20260504024318 | 50 | 201 | 1.7 | 1.7 | 0.00 | 0.00 | 0.00 | 51 | 1016.9 |
| 20260504023818 | 50 | 199 | 1.7 | 1.7 | 0.00 | 0.00 | 0.00 | 50 | 1016.9 |
| 20260504023337 | 50 | 195 | 0.9 | 1.7 | 0.00 | 0.00 | 0.00 | 50 | 1017.0 |
| 20260504022816 | 50 | 194 | 0.9 | 1.7 | 0.00 | 0.00 | 0.00 | 49 | 1016.9 |
| 20260504022316 | 50 | 250 | 0.9 | 1.7 | 0.00 | 0.00 | 0.00 | 49 | 1017.0 |
| 20260504021816 | 51 | 270 | 0.9 | 1.7 | 0.00 | 0.00 | 0.00 | 49 | 1017.0 |
| 20260504021315 | 51 | 241 | 1.7 | 2.6 | 0.00 | 0.00 | 0.00 | 49 | 1017.0 |
| 20260504020815 | 51 | 253 | 0.9 | 2.6 | 0.00 | 0.00 | 0.00 | 48 | 1017.0 |
| 20260504020314 | 51 | 248 | 2.6 | 3.5 | 0.00 | 0.00 | 0.00 | 48 | 1017.0 |
| 20260504015814 | 52 | 251 | 2.6 | 4.3 | 0.00 | 0.00 | 0.00 | 47 | 1016.9 |
| 20260504015612 | 52 | 230 | 1.7 | 2.6 | 0.00 | 0.00 | 0.00 | 47 | 1016.8 |
| 20260504015115 | 52 | 239 | 0.0 | 1.7 | 0.00 | 0.00 | 0.00 | 47 | 1016.8 |
| 20260504014612 | 52 | 256 | 1.7 | 1.7 | 0.00 | 0.00 | 0.00 | 47 | 1016.6 |
| 20260504014112 | 53 | 207 | 2.6 | 3.5 | 0.00 | 0.00 | 0.00 | 46 | 1016.4 |
| 20260504013610 | 53 | 215 | 1.7 | 3.5 | 0.00 | 0.00 | 0.00 | 46 | 1016.2 |
| 20260504013110 | 53 | 238 | 2.6 | 5.2 | 0.00 | 0.00 | 0.00 | 46 | 1016.4 |
| 20260504012610 | 53 | 245 | 2.6 | 4.3 | 0.00 | 0.00 | 0.00 | 46 | 1016.5 |
| 20260504012109 | 53 | 247 | 1.7 | 4.3 | 0.00 | 0.00 | 0.00 | 45 | 1016.6 |
| 20260504011609 | 53 | 248 | 2.6 | 3.5 | 0.00 | 0.00 | 0.00 | 45 | 1016.5 |
| 20260504011108 | 53 | 253 | 3.5 | 7.8 | 0.00 | 0.00 | 0.00 | 45 | 1016.4 |
| 20260504010608 | 53 | 252 | 2.6 | 6.1 | 0.00 | 0.00 | 0.00 | 45 | 1016.4 |
| 20260504010128 | 54 | 239 | 1.7 | 3.5 | 0.00 | 0.00 | 0.00 | 44 | 1016.3 |
| 20260504005607 | 54 | 242 | 2.6 | 3.5 | 0.00 | 0.00 | 0.00 | 44 | 1016.2 |
| 20260504005107 | 54 | 228 | 1.7 | 3.5 | 0.00 | 0.00 | 0.00 | 43 | 1016.1 |
| 20260504004608 | 54 | 236 | 1.7 | 2.6 | 0.00 | 0.00 | 0.00 | 43 | 1016.2 |
| 20260504004107 | 55 | 233 | 2.6 | 5.2 | 0.00 | 0.00 | 0.00 | 42 | 1016.1 |
| 20260504003606 | 55 | 250 | 2.6 | 3.5 | 0.00 | 0.00 | 0.00 | 42 | 1016.0 |
| 20260504003113 | 55 | 223 | 3.5 | 5.2 | 0.00 | 0.00 | 0.00 | 41 | 1015.8 |
| 20260504002605 | 56 | 221 | 3.5 | 5.2 | 0.00 | 0.00 | 0.00 | 40 | 1015.8 |
| 20260504002105 | 56 | 227 | 2.6 | 5.2 | 0.00 | 0.00 | 0.00 | 40 | 1016.0 |
| 20260504001608 | 56 | 237 | 4.3 | 7.0 | 0.00 | 0.00 | 0.00 | 40 | 1016.0 |
| 20260504001121 | 56 | 232 | 3.5 | 5.2 | 0.00 | 0.00 | 0.00 | 40 | 1015.8 |
| 20260504000604 | 57 | 208 | 2.6 | 3.5 | 0.00 | 0.00 | 0.00 | 40 | 1015.6 |
| 20260504000103 | 57 | 231 | 3.5 | 5.2 | 0.00 | 0.00 | 0.00 | 39 | 1015.7 |
| 20260503235603 | 57 | 226 | 3.5 | 6.1 | 0.00 | 0.00 | 0.00 | 39 | 1015.8 |
| 20260503235103 | 58 | 233 | 2.6 | 4.3 | 0.00 | 0.00 | 0.00 | 39 | 1015.8 |
| 20260503234602 | 58 | 235 | 3.5 | 6.1 | 0.00 | 0.00 | 0.00 | 38 | 1015.8 |
| 20260503234122 | 58 | 257 | 1.7 | 4.3 | 0.00 | 0.00 | 0.00 | 38 | 1015.8 |
| 20260503233601 | 58 | 233 | 5.2 | 9.6 | 0.00 | 0.00 | 0.00 | 37 | 1015.7 |
| 20260503233101 | 59 | 234 | 3.5 | 7.0 | 0.00 | 0.00 | 0.00 | 37 | 1015.7 |
| 20260503232608 | 60 | 244 | 1.7 | 4.3 | 0.00 | 0.00 | 0.00 | 36 | 1015.7 |
| 20260503232100 | 60 | 217 | 2.6 | 4.3 | 0.00 | 0.00 | 0.00 | 36 | 1015.7 |
| 20260503231559 | 60 | 222 | 3.5 | 5.2 | 0.00 | 0.00 | 0.00 | 35 | 1015.6 |
| 20260503231103 | 60 | 231 | 4.3 | 7.0 | 0.00 | 0.00 | 0.00 | 35 | 1015.5 |
| 20260503230558 | 61 | 207 | 6.1 | 7.8 | 0.00 | 0.00 | 0.00 | 35 | 1015.5 |
| 20260503230058 | 61 | 256 | 4.3 | 7.0 | 0.00 | 0.00 | 0.00 | 35 | 1015.5 |
| 20260503225558 | 61 | 224 | 4.3 | 6.1 | 0.00 | 0.00 | 0.00 | 34 | 1015.4 |
| 20260503225057 | 61 | 238 | 4.3 | 8.7 | 0.00 | 0.00 | 0.00 | 33 | 1015.4 |
| 20260503224557 | 62 | 251 | 6.1 | 9.6 | 0.00 | 0.00 | 0.00 | 31 | 1015.4 |
| 20260503224056 | 62 | 263 | 3.5 | 6.1 | 0.00 | 0.00 | 0.00 | 30 | 1015.4 |
| 20260503223556 | 62 | 256 | 3.5 | 7.0 | 0.00 | 0.00 | 0.00 | 31 | 1015.5 |
| 20260503223056 | 62 | 320 | 3.5 | 5.2 | 0.00 | 0.00 | 0.00 | 30 | 1015.4 |
| 20260503222556 | 62 | 280 | 4.3 | 6.1 | 0.00 | 0.00 | 0.00 | 30 | 1015.4 |
| 20260503222055 | 62 | 290 | 4.3 | 6.1 | 0.00 | 0.00 | 0.00 | 30 | 1015.4 |
| 20260503221600 | 62 | 255 | 3.5 | 5.2 | 0.00 | 0.00 | 0.00 | 30 | 1015.5 |
| 20260503221054 | 62 | 249 | 1.7 | 4.3 | 0.00 | 0.00 | 0.00 | 31 | 1015.5 |
| 20260503220554 | 62 | 314 | 2.6 | 4.3 | 0.00 | 0.00 | 0.00 | 30 | 1015.5 |
| 20260503220105 | 62 | 31 | 0.9 | 2.6 | 0.00 | 0.00 | 0.00 | 32 | 1015.6 |
| 20260503215553 | 62 | 250 | 6.1 | 9.6 | 0.00 | 0.00 | 0.00 | 30 | 1015.5 |
| 20260503215053 | 62 | 291 | 1.7 | 3.5 | 0.00 | 0.00 | 0.00 | 30 | 1015.6 |
| 20260503214613 | 61 | 229 | 2.6 | 3.5 | 0.00 | 0.00 | 0.00 | 31 | 1015.6 |
| 20260503214052 | 61 | 304 | 3.5 | 5.2 | 0.00 | 0.00 | 0.00 | 28 | 1015.7 |
| 20260503213612 | 61 | 322 | 3.5 | 5.2 | 0.00 | 0.00 | 0.00 | 29 | 1015.7 |
| 20260503213058 | 62 | 296 | 5.2 | 7.8 | 0.00 | 0.00 | 0.00 | 29 | 1015.7 |
| 20260503212551 | 62 | 249 | 3.5 | 6.1 | 0.00 | 0.00 | 0.00 | 30 | 1015.7 |
| 20260503212057 | 61 | 245 | 1.7 | 5.2 | 0.00 | 0.00 | 0.00 | 29 | 1015.7 |
| 20260503211557 | 61 | 309 | 2.6 | 6.1 | 0.00 | 0.00 | 0.00 | 30 | 1015.8 |
| 20260503211049 | 60 | 294 | 3.5 | 6.1 | 0.00 | 0.00 | 0.00 | 31 | 1015.8 |
| 20260503210549 | 61 | 278 | 4.3 | 7.0 | 0.00 | 0.00 | 0.00 | 31 | 1016.0 |
| 20260503210108 | 61 | 269 | 2.6 | 5.2 | 0.00 | 0.00 | 0.00 | 31 | 1016.0 |
| 20260503205548 | 61 | 273 | 5.2 | 9.6 | 0.00 | 0.00 | 0.00 | 30 | 1015.8 |
| 20260503205047 | 61 | 248 | 4.3 | 7.8 | 0.00 | 0.00 | 0.00 | 31 | 1016.0 |
| 20260503204547 | 61 | 273 | 4.3 | 8.7 | 0.00 | 0.00 | 0.00 | 31 | 1015.8 |
| 20260503204106 | 61 | 319 | 3.5 | 7.0 | 0.00 | 0.00 | 0.00 | 31 | 1016.1 |
| 20260503203606 | 61 | 233 | 1.7 | 1.7 | 0.00 | 0.00 | 0.00 | 31 | 1016.1 |
| 20260503203045 | 61 | 246 | 4.3 | 7.0 | 0.00 | 0.00 | 0.00 | 31 | 1016.1 |
| 20260503202605 | 60 | 339 | 1.7 | 3.5 | 0.00 | 0.00 | 0.00 | 32 | 1016.3 |
| 20260503202105 | 60 | 296 | 4.3 | 8.7 | 0.00 | 0.00 | 0.00 | 31 | 1016.4 |
| 20260503201604 | 60 | 305 | 1.7 | 4.3 | 0.00 | 0.00 | 0.00 | 32 | 1016.3 |
| 20260503201044 | 60 | 194 | 0.9 | 2.6 | 0.00 | 0.00 | 0.00 | 32 | 1016.5 |
| 20260503200543 | 60 | 262 | 2.6 | 5.2 | 0.00 | 0.00 | 0.00 | 32 | 1016.6 |
| 20260503195603 | 60 | 277 | 4.3 | 8.7 | 0.00 | 0.00 | 0.00 | 31 | 1016.7 |
| 20260503195042 | 60 | 226 | 6.1 | 7.8 | 0.00 | 0.00 | 0.00 | 32 | 1016.7 |
| 20260503194602 | 60 | 299 | 1.7 | 3.5 | 0.00 | 0.00 | 0.00 | 33 | 1016.7 |
| 20260503194101 | 61 | 261 | 4.3 | 9.6 | 0.00 | 0.00 | 0.00 | 31 | 1016.7 |
| 20260503193601 | 60 | 14 | 2.6 | 4.3 | 0.00 | 0.00 | 0.00 | 35 | 1016.8 |
| 20260503193040 | 59 | 201 | 1.7 | 4.3 | 0.00 | 0.00 | 0.00 | 35 | 1016.9 |
| 20260503192540 | 59 | 268 | 3.5 | 7.0 | 0.00 | 0.00 | 0.00 | 33 | 1017.1 |
| 20260503192100 | 59 | 298 | 5.2 | 7.8 | 0.00 | 0.00 | 0.00 | 34 | 1017.2 |
| 20260503191546 | 59 | 252 | 4.3 | 7.0 | 0.00 | 0.00 | 0.00 | 34 | 1017.2 |
| 20260503191059 | 58 | 300 | 1.7 | 3.5 | 0.00 | 0.00 | 0.00 | 36 | 1017.2 |
| 20260503190539 | 58 | 314 | 2.6 | 5.2 | 0.00 | 0.00 | 0.00 | 36 | 1017.2 |
| 20260503190058 | 59 | 235 | 6.1 | 7.8 | 0.00 | 0.00 | 0.00 | 33 | 1017.3 |
| 20260503185558 | 59 | 254 | 2.6 | 5.2 | 0.00 | 0.00 | 0.00 | 35 | 1017.3 |
| 20260503185057 | 58 | 284 | 2.6 | 7.0 | 0.00 | 0.00 | 0.00 | 35 | 1017.3 |
| 20260503184543 | 58 | 359 | 2.6 | 5.2 | 0.00 | 0.00 | 0.00 | 36 | 1017.3 |
| 20260503184036 | 57 | 276 | 3.5 | 7.0 | 0.00 | 0.00 | 0.00 | 34 | 1017.5 |
| 20260503183535 | 57 | 298 | 4.3 | 6.1 | 0.00 | 0.00 | 0.00 | 32 | 1017.7 |
| 20260503183035 | 57 | 259 | 4.3 | 6.1 | 0.00 | 0.00 | 0.00 | 34 | 1017.7 |
| 20260503182535 | 57 | 281 | 5.2 | 7.8 | 0.00 | 0.00 | 0.00 | 33 | 1017.7 |
| 20260503182034 | 56 | 32 | 1.7 | 2.6 | 0.00 | 0.00 | 0.00 | 36 | 1017.8 |
| 20260503181537 | 56 | 240 | 4.3 | 7.8 | 0.00 | 0.00 | 0.00 | 34 | 1017.9 |
| 20260503181033 | 56 | 290 | 4.3 | 6.1 | 0.00 | 0.00 | 0.00 | 35 | 1018.1 |
| 20260503180533 | 56 | 269 | 4.3 | 7.0 | 0.00 | 0.00 | 0.00 | 35 | 1018.1 |
| 20260503180033 | 56 | 316 | 5.2 | 7.0 | 0.00 | 0.00 | 0.00 | 35 | 1018.1 |
| 20260503175532 | 56 | 217 | 2.6 | 5.2 | 0.00 | 0.00 | 0.00 | 35 | 1018.1 |
| 20260503175032 | 56 | 252 | 4.3 | 7.8 | 0.00 | 0.00 | 0.00 | 37 | 1018.3 |
| 20260503174532 | 56 | 346 | 0.9 | 1.7 | 0.00 | 0.00 | 0.00 | 38 | 1018.1 |
| 20260503174031 | 55 | 219 | 3.5 | 5.2 | 0.00 | 0.00 | 0.00 | 37 | 1018.2 |
| 20260503173551 | 54 | 273 | 4.3 | 6.1 | 0.00 | 0.00 | 0.00 | 39 | 1018.3 |
| 20260503173031 | 54 | 242 | 4.3 | 7.8 | 0.00 | 0.00 | 0.00 | 37 | 1018.2 |
| 20260503172530 | 54 | 301 | 7.0 | 9.6 | 0.00 | 0.00 | 0.00 | 37 | 1018.4 |
| 20260503172030 | 53 | 12 | 1.7 | 4.3 | 0.00 | 0.00 | 0.00 | 42 | 1018.4 |
| 20260503171530 | 53 | 73 | 1.7 | 3.5 | 0.00 | 0.00 | 0.00 | 40 | 1018.5 |
| 20260503171029 | 53 | 213 | 2.6 | 4.3 | 0.00 | 0.00 | 0.00 | 37 | 1018.6 |
| 20260503170529 | 54 | 57 | 1.7 | 2.6 | 0.00 | 0.00 | 0.00 | 37 | 1018.6 |
| 20260503150520 | 49 | 47 | 2.6 | 4.3 | 0.00 | 0.00 | 0.00 | 46 | 1019.4 |
| 20260503131012 | 44 | 326 | 2.6 | 5.2 | 0.00 | 0.00 | 0.00 | 51 | 1019.2 |
| 20260503130511 | 44 | 306 | 4.3 | 7.0 | 0.00 | 0.00 | 0.00 | 52 | 1019.2 |
| 20260503110501 | 37 | 35 | 1.7 | 1.7 | 0.00 | 0.00 | 0.00 | 69 | 1018.5 |